Regional Weather Roundup
Issued by NWS Lake Charles, LA

Home | Current Version | Previous Version | Text Only | Print | Product List | Glossary On
Versions: 1 2 3 4 5 6 7 8 9 10 11 12 13 14 15 16 17 18 19 20 21 22 23 24 25 26 27 28 29 30 31 32 33 34 35 36 37 38 39 40 41 42 43 44 45 46 47 48 49 50
000
ASUS44 KLCH 030410
RWRLCH
RWRLCH
REGIONAL WEATHER ROUNDUP
NATIONAL WEATHER SERVICE LAKE CHARLES LA
1100 PM CDT TUE SEP 02 2014

Note: "fair" indicates few or no clouds below 12,000 feet with no
significant weather and/or obstructions to visibility.


ACROSS SOUTHEAST TEXAS

CITY           SKY/WX    TMP DP  RH WIND       PRES   REMARKS
BEAUMONT       CLEAR     81  76  84 SE5       29.97S
BEAUMONT CITY    N/A     80  76  90 SE3       29.99R
ORANGE         CLEAR     81  81 100 SE5       30.00S
JASPER         MOCLDY    74  73  94 SE3       30.02F
$$

ACROSS CENTRAL LOUISIANA

CITY           SKY/WX    TMP DP  RH WIND       PRES   REMARKS
LEESVILLE      CLOUDY    73  72  96 NE6       30.02R
FULLERTON        N/A     76  73  91 CALM      30.00S
ALEXANDRIA INT CLOUDY    75  74  96 SE5       30.00F
ESLER FIELD    CLOUDY    76  73  91 CALM      30.03R
DERIDDER         N/A     74  72  94 CALM      30.02F
OAKDALE        CLOUDY    73  71  95 N6        30.03R
OPELOUSAS        N/A     74  73  96 SE3       30.00S
$$

ACROSS SOUTHWEST AND SOUTH CENTRAL LOUISIANA

CITY           SKY/WX    TMP DP  RH WIND       PRES   REMARKS
SULPHUR        PTCLDY    82  78  85 CALM      30.00R
LAKE CHARLES   PTCLDY    80  77  90 E3        29.99S
CHENNAULT INT  MOCLDY    78  75  90 CALM      30.01R
CAMERON PHI      N/A     84  79  84 S13G22    29.98F
DEQUINCY         N/A     74  73  96 CALM      30.00F
JENNINGS         N/A     77  73  90 SE7       30.00R
LAFAYETTE      CLOUDY    77  73  87 SE3       30.01F
NEW IBERIA     CLOUDY    78  73  84 SE6       30.01F
ABBEVILLE        N/A     76  73  91 E5        30.01F
PATTERSON      CLOUDY    79  75  89 E7        30.06F
SALT POINT       N/A     83  79  88 CALM      30.02F
$$

SELECTED SITES ACROSS THE REGION

CITY           SKY/WX    TMP DP  RH WIND       PRES   REMARKS
HOUSTON BUSH   PTCLDY    81  76  84 S9        29.97F
HOUSTON HOBBY  PTCLDY    81  76  84 S3        29.96F
GALVESTON      PTCLDY    84  77  79 SE15      29.98R
COLLEGE STAT   CLEAR     82  73  74 S13       29.97R
CONROE         CLEAR     78  74  87 SE5       29.98F
HUNTSVILLE     CLEAR     81  73  76 S6        29.97S
LUFKIN         MOCLDY    79  75  87 SE5       30.00S
SHREVEPORT     PTCLDY    75  72  90 S3        29.98S
MONROE         CLOUDY    73  71  93 CALM      30.01R
NATCHEZ MS     CLOUDY    73  70  88 CALM      30.03R
BATON ROUGE    CLOUDY    75  72  90 E14       30.01F
N.O. INTL ARPT TSTM      75  71  87 N12       30.08S FOG
SLIDELL        TSTM      74  71  91 CALM      30.08S
$$

MARINE REPORTS

STATION/POSITION TIME  TEMP    WIND        PRES    VSBY  WAVE
                       AIR SEA DIR/SP/G                  HT/PER
                 (UTC) (F)     (DEG/KT/KT) (MB)    (MI)  (FT/S)
BUOY 30 S HIGH I 0400   85 85  130/ 16/ 17 1014.5S         6/ 8
SEA RIM ST PARK  0400   84     150/ 14/ 16 1015.4F
PORT ARTHUR      0400      86  150/  7/ 12 1015.0S
SABINE PASS N    0400   84 85  170/ 12/ 15 1014.9F
TEXAS POINT      0400   84 86  150/ 18/ 19 1014.9F
CALCASIEU PASS   0400   84 86  170/ 15/ 18 1016.0F
LK CHARLES BEACH 0400   82 83              1016.6R
MARSH ISLAND     NOT AVBL
FRESH WATER LOCK 0400   82 86  110/  6/  8 1015.9F
AMERADA PASS     0400   82 87  100/  1/  2 1017.0F
$$


USA.gov is the U.S. government's official web portal to all federal, state and local government web resources and services.